Voltar ao catálogo

COSMOS 1176 FUEL CORE

AtivoLEO
NORAD 11971·DEBRIS·🇷🇺 Russia

Lançado Apr 29, 1980 de Baikonur Cosmodrome

Loading…

Próximas Passagens (próximas 24 horas)

TLE

AtualizadoSource: Space-Track

Época: Sep 14, 2026, 06:25 UTC

1 11971U 80034D   26257.26789681 -.00000100  00000-0 -50167-5 0  9990
2 11971  64.8326 204.2457 0038589 208.2891 300.5202 13.96933582358059

Acompanhe COSMOS 1176 FUEL CORE em tempo real com AllMySat

Download on the App Store